Погода в Крисиуме

Бразилия     28°40′14″S   49°22′00″W
темп.,
°C
ветер,
м/с
пор.,
м/с
влажн.,
%
обл.,
%
осадки,
мм/ч
давл.,
гПа
погр.,
м
5 мая, ср
ср500:00+20ююз2595100 0.3 1018311
03:00+20ююз61097100 1.4 1018763
06:00+18ююз4793100 1.9 1019457
09:00+18юз2496100 2.6 1020313
12:00+17зюз3597100 1.4 1019345
15:00+16зюз3698100 2.9 1018330
18:00+17ююз3597100 2.6 1018390
21:00+17ю2597100 6.0 1018346
6 мая, чт
чт600:00+16зюз3698100 8.4 1018371
03:00+15юз2698100 18.4 1017346
06:00+15юз4997100 10.7 1016564
09:00+15зюз51097100 21.5 1019637
12:00+15зюз4998100 5.9 1018570
15:00+14юз61293100 14.9 1019741
18:00+14юз51088100 0.5 1019520
21:00+14зюз3590100 0.8 1021265
7 мая, пт
пт700:00+11з249537 0.0 1022136
03:00+10з239534 0.0 102191
06:00+9з349654 0.0 102295
09:00+12з23860 0.0 1023165
12:00+18ю34500 0.0 1023967
15:00+18ю34530 0.0 1023863
18:00+14ююз35780 0.0 1024205
21:00+14зюз248186 0.0 1026243
8 мая, сб
сб800:00+12зсз22866 0.1 102641
03:00+11сз228916 0.1 102638
06:00+10сз33890 0.0 102650
09:00+16зсз22695 0.0 1028186
12:00+20вюв22558 0.0 1027911
15:00+19вюв44620 0.0 1025472
18:00+16в24821 0.0 1026118
21:00+13сз22940 0.0 102751
9 мая, вс
вс900:00+13ссз22931 0.0 102743
03:00+12сз22952 0.0 102641
06:00+11сз22956 0.0 102649
09:00+16с227921 0.0 1027196
12:00+21в457048 0.0 1026945
15:00+21всв687740 0.4 1024891
18:00+18св6128697 0.2 1025653
21:00+18св5118895 0.3 1026651